CYGFM08

Last updated on Sun Oct 06 2024 00:02:17 GMT+0000 (Coordinated Universal Time)

1 41888U 16078E 24279.47190965 .00029425 00000+0 94095-3 0 9997 2 41888 34.9507 312.3765 0012877 140.6111 219.5543 15.31392447433081
UTC large
Height (km)
Speed (km/s)
/
Latitude / Longitude
Inclination (degrees)
Orbital Period (minutes)
Azimuth
Elevation
Range (km)
Doppler Factor

Next 0 passes for location: London (51.5072 / 0.1276)

Sorry there are no passes over London.